Euro Snow — VQGH9 — position and weather

sailwx.info

Track history (hours):
 
Tides and Currents Weather Stations Pressure Air Temp Water Temp Dewpoint Dewpoint Depression Visibility Wind Speed Wind Dir Waves Ship Positions

Euro Snow

Last reported at 2014-Oct-20 22:34 UTC. Time now 2014-Oct-20 22:47 UTC.
Position N 53°03' E 001°27'.

Length 133 m; draft 6.5 m.

Type: Cargo ship. MMSI: 235613000.

Date/timePositionNaut miles runAvg speedWind from/ knotsBaromVisibWave heightAir tempDewpointWater temp
2014-Oct-20 22:34N 53°03' E 001°27'1515.0
2014-Oct-20 21:34N 52°52' E 001°43'1313.3
2014-Oct-20 20:33N 52°40' E 001°55'1514.7
2014-Oct-20 19:34N 52°26' E 001°50'1514.6
2014-Oct-20 18:33N 52°12' E 001°43'1414.2
2014-Oct-20 17:34N 51°59' E 001°35'1110.5
2014-Oct-20 16:33N 51°57' E 001°18'0 0.2
2014-Oct-20 15:34N 51°57' E 001°18'0 0.0
2014-Oct-20 14:34N 51°57' E 001°18'0 0.0
2014-Oct-20 13:30N 51°57' E 001°18'0 0.0
2014-Oct-20 12:34N 51°57' E 001°18'0 0.0
2014-Oct-20 11:34N 51°57' E 001°18'0 0.0
2014-Oct-20 10:34N 51°57' E 001°18'0 0.0
2014-Oct-20 09:32N 51°57' E 001°18'0 0.0
2014-Oct-20 08:32N 51°57' E 001°18'0 0.0
2014-Oct-20 07:32N 51°57' E 001°18'0 0.0
2014-Oct-20 06:32N 51°57' E 001°18'0 0.0
2014-Oct-20 05:33N 51°57' E 001°18'0 0.0
2014-Oct-20 04:33N 51°57' E 001°18'0 0.0
2014-Oct-20 03:33N 51°57' E 001°18'0 0.0
2014-Oct-20 02:33N 51°57' E 001°18'9 9.4
2014-Oct-20 01:33N 51°55' E 001°33'1212.2
2014-Oct-20 00:33N 51°47' E 001°48'1515.0
2014-Oct-19 23:33N 51°32' E 001°47'1615.9
2014-Oct-19 22:34N 51°16' E 001°42'1615.6
2014-Oct-19 21:34N 51°02' E 001°34'1917.7
2014-Oct-19 20:31N 50°44' E 001°23'27915.5
2014-Oct-19 02:33N 48°54' W 005°14'1616.4
2014-Oct-19 01:33N 48°45' W 005°35'1716.6
2014-Oct-19 00:34N 48°30' W 005°47'  
2014-Oct-16 17:07N 38°37' W 009°26'813.4
2014-Oct-16 16:33N 38°41' W 009°18'9 9.4
2014-Oct-16 15:33N 38°44' W 009°06'0 0.0
2014-Oct-16 14:33N 38°44' W 009°06'0 0.0
2014-Oct-16 13:31N 38°44' W 009°06'0 0.0
2014-Oct-16 12:31N 38°44' W 009°06'0 0.0
2014-Oct-16 11:26N 38°44' W 009°06'0 0.0
2014-Oct-16 10:32N 38°44' W 009°06'0 0.0
2014-Oct-16 09:32N 38°44' W 009°06'0 0.0
2014-Oct-16 08:33N 38°44' W 009°06'0 0.0
2014-Oct-16 07:32N 38°44' W 009°06'0 0.0
2014-Oct-16 06:29N 38°44' W 009°06'0 0.0
2014-Oct-16 05:28N 38°43' W 009°06'8 8.3
2014-Oct-16 04:32N 38°41' W 009°16'  
2014-Oct-12 04:26N 50°32' E 000°11'1517.0
2014-Oct-12 03:34N 50°36' E 000°33'2215.5
2014-Oct-12 02:10N 50°48' E 001°01'914.0
2014-Oct-12 01:33N 50°53' E 001°13'1313.5
2014-Oct-12 00:33N 51°02' E 001°28'1515.2
2014-Oct-11 23:33N 51°13' E 001°45'1717.3
2014-Oct-11 22:33N 51°27' E 002°01'1817.4
2014-Oct-11 21:33N 51°40' E 002°20'4715.0
2014-Oct-11 18:26N 52°03' E 003°26'1314.9
2014-Oct-11 17:34N 52°04' E 003°47'1312.5
2014-Oct-11 16:33N 51°58' E 004°05'2 1.5
2014-Oct-11 15:32N 51°58' E 004°02'0 0.0
2014-Oct-11 14:33N 51°58' E 004°02'0 0.0
2014-Oct-11 13:30N 51°58' E 004°02'0 0.0
2014-Oct-11 12:33N 51°58' E 004°02'0 0.0
2014-Oct-11 11:31N 51°58' E 004°02'0 0.0
2014-Oct-11 10:28N 51°58' E 004°02'0 0.0
2014-Oct-11 09:33N 51°58' E 004°02'0 0.0
2014-Oct-11 08:33N 51°58' E 004°02'0 0.0
2014-Oct-11 07:31N 51°58' E 004°02'0 0.0
2014-Oct-11 06:33N 51°58' E 004°02'0 0.0
2014-Oct-11 05:29N 51°58' E 004°02'0 0.0
2014-Oct-11 04:32N 51°58' E 004°02'2 1.6
2014-Oct-11 03:34N 51°58' E 004°05'1414.0
2014-Oct-11 02:33N 52°07' E 003°47'1515.2
2014-Oct-11 01:33N 52°22' E 003°48'1615.9
2014-Oct-11 00:33N 52°38' E 003°53'1716.7
2014-Oct-10 23:33N 52°54' E 003°59'  
Track history (hours):
 
Tides and Currents Weather Stations Pressure Air Temp Water Temp Dewpoint Dewpoint Depression Visibility Wind Speed Wind Dir Waves Ship Positions

Euro Snow

Last reported at 2014-Oct-20 22:34 UTC. Time now 2014-Oct-20 22:47 UTC.
Position N 53°03' E 001°27'.

Length 133 m; draft 6.5 m.

Type: Cargo ship. MMSI: 235613000.

Date/timePositionNaut miles runAvg speedWind from/ knotsBaromVisibWave heightAir tempDewpointWater temp
2014-Oct-20 22:34N 53°03' E 001°27'1515.0
2014-Oct-20 21:34N 52°52' E 001°43'1313.3
2014-Oct-20 20:33N 52°40' E 001°55'1514.7
2014-Oct-20 19:34N 52°26' E 001°50'1514.6
2014-Oct-20 18:33N 52°12' E 001°43'1414.2
2014-Oct-20 17:34N 51°59' E 001°35'1110.5
2014-Oct-20 16:33N 51°57' E 001°18'0 0.2
2014-Oct-20 15:34N 51°57' E 001°18'0 0.0
2014-Oct-20 14:34N 51°57' E 001°18'0 0.0
2014-Oct-20 13:30N 51°57' E 001°18'0 0.0
2014-Oct-20 12:34N 51°57' E 001°18'0 0.0
2014-Oct-20 11:34N 51°57' E 001°18'0 0.0
2014-Oct-20 10:34N 51°57' E 001°18'0 0.0
2014-Oct-20 09:32N 51°57' E 001°18'0 0.0
2014-Oct-20 08:32N 51°57' E 001°18'0 0.0
2014-Oct-20 07:32N 51°57' E 001°18'0 0.0
2014-Oct-20 06:32N 51°57' E 001°18'0 0.0
2014-Oct-20 05:33N 51°57' E 001°18'0 0.0
2014-Oct-20 04:33N 51°57' E 001°18'0 0.0
2014-Oct-20 03:33N 51°57' E 001°18'0 0.0
2014-Oct-20 02:33N 51°57' E 001°18'9 9.4
2014-Oct-20 01:33N 51°55' E 001°33'1212.2
2014-Oct-20 00:33N 51°47' E 001°48'1515.0
2014-Oct-19 23:33N 51°32' E 001°47'1615.9
2014-Oct-19 22:34N 51°16' E 001°42'1615.6
2014-Oct-19 21:34N 51°02' E 001°34'1917.7
2014-Oct-19 20:31N 50°44' E 001°23'27915.5
2014-Oct-19 02:33N 48°54' W 005°14'1616.4
2014-Oct-19 01:33N 48°45' W 005°35'1716.6
2014-Oct-19 00:34N 48°30' W 005°47'  
2014-Oct-16 17:07N 38°37' W 009°26'813.4
2014-Oct-16 16:33N 38°41' W 009°18'9 9.4
2014-Oct-16 15:33N 38°44' W 009°06'0 0.0
2014-Oct-16 14:33N 38°44' W 009°06'0 0.0
2014-Oct-16 13:31N 38°44' W 009°06'0 0.0
2014-Oct-16 12:31N 38°44' W 009°06'0 0.0
2014-Oct-16 11:26N 38°44' W 009°06'0 0.0
2014-Oct-16 10:32N 38°44' W 009°06'0 0.0
2014-Oct-16 09:32N 38°44' W 009°06'0 0.0
2014-Oct-16 08:33N 38°44' W 009°06'0 0.0
2014-Oct-16 07:32N 38°44' W 009°06'0 0.0
2014-Oct-16 06:29N 38°44' W 009°06'0 0.0
2014-Oct-16 05:28N 38°43' W 009°06'8 8.3
2014-Oct-16 04:32N 38°41' W 009°16'  
2014-Oct-12 04:26N 50°32' E 000°11'1517.0
2014-Oct-12 03:34N 50°36' E 000°33'2215.5
2014-Oct-12 02:10N 50°48' E 001°01'914.0
2014-Oct-12 01:33N 50°53' E 001°13'1313.5
2014-Oct-12 00:33N 51°02' E 001°28'1515.2
2014-Oct-11 23:33N 51°13' E 001°45'1717.3
2014-Oct-11 22:33N 51°27' E 002°01'1817.4
2014-Oct-11 21:33N 51°40' E 002°20'4715.0
2014-Oct-11 18:26N 52°03' E 003°26'1314.9
2014-Oct-11 17:34N 52°04' E 003°47'1312.5
2014-Oct-11 16:33N 51°58' E 004°05'2 1.5
2014-Oct-11 15:32N 51°58' E 004°02'0 0.0
2014-Oct-11 14:33N 51°58' E 004°02'0 0.0
2014-Oct-11 13:30N 51°58' E 004°02'0 0.0
2014-Oct-11 12:33N 51°58' E 004°02'0 0.0
2014-Oct-11 11:31N 51°58' E 004°02'0 0.0
2014-Oct-11 10:28N 51°58' E 004°02'0 0.0
2014-Oct-11 09:33N 51°58' E 004°02'0 0.0
2014-Oct-11 08:33N 51°58' E 004°02'0 0.0
2014-Oct-11 07:31N 51°58' E 004°02'0 0.0
2014-Oct-11 06:33N 51°58' E 004°02'0 0.0
2014-Oct-11 05:29N 51°58' E 004°02'0 0.0
2014-Oct-11 04:32N 51°58' E 004°02'2 1.6
2014-Oct-11 03:34N 51°58' E 004°05'1414.0
2014-Oct-11 02:33N 52°07' E 003°47'1515.2
2014-Oct-11 01:33N 52°22' E 003°48'1615.9
2014-Oct-11 00:33N 52°38' E 003°53'1716.7
2014-Oct-10 23:33N 52°54' E 003°59'  

Dump ship's entire track history